Batman, Turkey

5:24 AM +03 on August 19, 2017 (GMT +0300)
Batman Air Base

Weather History for LTCJ - October, 2012

Change the Weather History Date:

Tuesday, October 30, 2012

  Actual Average (LTCC) Record (LTCC)
Temperature  
Mean Temperature 60 °F -  
Max Temperature 73 °F 66 °F 73 °F (2004)
Min Temperature 46 °F 43 °F 32 °F (2003)
Degree Days  
Heating Degree Days 6    
Growing Degree Days 10 (Base 50)    
Moisture  
Dew Point 49 °F    
Average Humidity 76    
Maximum Humidity 100    
Minimum Humidity 35    
Precipitation  
Precipitation 0.00 in - - ()
Sea Level Pressure  
Sea Level Pressure 30.04 in    
Wind  
Wind Speed 2 mph ()    
Max Wind Speed 5 mph    
Max Gust Speed -    
Visibility 3.3 miles    
Events Fog    
Averages and records for this station are not official NWS values.
T = Trace of Precipitation, MM = Missing Value Source: Averaged Metar Reports

Daily Weather History Graph

Daily Weather History Graph

Search for Another Location

Airport or City:

Trip Planner

Search our weather history database for the weather conditions in past years. The results will help you decide how hot, cold, wet, or windy it might be!

Date:

Astronomy

Oct. 30, 2012 Rise Set
Actual Time 5:39 AM EET 4:18 PM EET
Civil Twilight 5:11 AM EET 4:45 PM EET
Nautical Twilight 4:40 AM EET 5:16 PM EET
Astronomical Twilight 4:10 AM EET 5:47 PM EET
Moon 4:35 PM EET (10/30) 6:04 AM EET (10/30)
Length of Visible Light 11h 33m
Length of Day
10h 39m
Full, 100% of the Moon is Illuminated
Oct 30
Full
Nov 7
Last Quarter
Nov 14
New
Nov 20
First Quarter
Nov 28
Full

Hourly Weather History & Observations

Time (EET) Temp. Windchill Dew Point Humidity Pressure Visibility Wind Dir Wind Speed Gust Speed Precip Events Conditions
12:20 AM 50.0 °F - 48.2 °F 94% 30.06 in - NE 4.6 mph - N/A   Clear
12:50 AM 50.0 °F - 48.2 °F 94% 30.06 in - NNE 4.6 mph - N/A   Clear
1:20 AM 51.8 °F - 50.0 °F 94% 30.06 in - Variable 1.2 mph - N/A   Clear
1:50 AM 50.0 °F - 48.2 °F 94% 30.06 in - West 1.2 mph - N/A   Clear
2:20 AM 48.2 °F - 46.4 °F 93% 30.06 in 2.5 mi SW 4.6 mph - N/A   Partly Cloudy
2:50 AM 48.2 °F - 46.4 °F 93% 30.04 in 3.1 mi South 4.6 mph - N/A   Mist
3:20 AM 48.2 °F - 48.2 °F 100% 30.04 in - Variable 2.3 mph - N/A   Clear
3:50 AM 48.2 °F - 46.4 °F 93% 30.04 in - ESE 2.3 mph - N/A   Clear
4:20 AM 48.2 °F - 46.4 °F 93% 30.04 in - Variable 2.3 mph - N/A   Mist
4:50 AM 46.4 °F 45.2 °F 44.6 °F 93% 30.04 in 1.9 mi ENE 3.5 mph - N/A   Mist
5:20 AM 48.2 °F - 46.4 °F 93% 30.04 in 3.1 mi Calm Calm - N/A   Mist
5:50 AM 46.4 °F - 44.6 °F 93% 30.06 in 5.0 mi Calm Calm - N/A   Unknown
6:20 AM 48.2 °F - 48.2 °F 100% 30.06 in 3.1 mi Calm Calm - N/A Fog Patches of Fog
6:50 AM 50.0 °F - 48.2 °F 94% 30.06 in 0.3 mi Calm Calm - N/A Fog Patches of Fog
7:20 AM 53.6 °F - 51.8 °F 94% 30.06 in 3.1 mi Calm Calm - N/A Fog Patches of Fog
7:50 AM 55.4 °F - 51.8 °F 88% 30.06 in 4.3 mi Calm Calm - N/A   Unknown
8:20 AM 57.2 °F - 51.8 °F 82% 30.06 in 5.0 mi Variable 1.2 mph - N/A   Unknown
8:50 AM 59.0 °F - 51.8 °F 77% 30.06 in 5.0 mi Variable 2.3 mph - N/A   Unknown
9:20 AM 60.8 °F - 51.8 °F 72% 30.06 in - Variable 3.5 mph - N/A   Clear
9:50 AM 62.6 °F - 51.8 °F 68% 30.06 in - WSW 4.6 mph - N/A   Clear
10:20 AM 64.4 °F - 51.8 °F 64% 30.06 in - Variable 2.3 mph - N/A   Clear
10:50 AM 66.2 °F - 51.8 °F 60% 30.06 in - Variable 2.3 mph - N/A   Clear
11:20 AM 68.0 °F - 51.8 °F 56% 30.04 in - Variable 1.2 mph - N/A   Clear
11:50 AM 69.8 °F - 48.2 °F 46% 30.04 in - Variable 2.3 mph - N/A   Clear
12:50 PM 71.6 °F - 42.8 °F 35% 30.01 in - Variable 1.2 mph - N/A   Clear
1:20 PM 71.6 °F - 46.4 °F 41% 30.01 in - WSW 4.6 mph - N/A   Clear
1:50 PM 73.4 °F - 44.6 °F 36% 30.01 in - WSW 3.5 mph - N/A   Clear
2:20 PM 73.4 °F - 44.6 °F 36% 30.01 in - Variable 2.3 mph - N/A   Clear
2:50 PM 71.6 °F - 44.6 °F 38% 30.01 in - SW 4.6 mph - N/A   Clear
3:20 PM 71.6 °F - 44.6 °F 38% 30.01 in - WSW 3.5 mph - N/A   Clear
3:50 PM 69.8 °F - 48.2 °F 46% 30.01 in - WSW 4.6 mph - N/A   Clear
4:20 PM 66.2 °F - 48.2 °F 52% 30.01 in - WSW 4.6 mph - N/A   Clear
4:50 PM 60.8 °F - 50.0 °F 68% 30.01 in - NNE 2.3 mph - N/A   Clear
5:20 PM 60.8 °F - 50.0 °F 68% 30.01 in - NNE 3.5 mph - N/A   Clear
5:50 PM 59.0 °F - 50.0 °F 72% 30.04 in - NNE 3.5 mph - N/A   Clear
6:20 PM 57.2 °F - 50.0 °F 77% 30.04 in - ENE 4.6 mph - N/A   Clear
6:50 PM 57.2 °F - 50.0 °F 77% 30.04 in - ENE 4.6 mph - N/A   Clear
7:20 PM 55.4 °F - 48.2 °F 77% 30.04 in - Variable 2.3 mph - N/A   Clear
7:50 PM 55.4 °F - 50.0 °F 82% 30.04 in - North 3.5 mph - N/A   Clear
8:20 PM 55.4 °F - 50.0 °F 82% 30.04 in - ENE 4.6 mph - N/A   Clear
8:50 PM 53.6 °F - 48.2 °F 82% 30.04 in - NE 4.6 mph - N/A   Clear
9:20 PM 53.6 °F - 50.0 °F 88% 30.04 in - Variable 2.3 mph - N/A   Clear
9:50 PM 51.8 °F - 46.4 °F 82% 30.06 in - Variable 2.3 mph - N/A   Clear
10:20 PM 53.6 °F - 50.0 °F 88% 30.06 in - Variable 2.3 mph - N/A   Clear
10:50 PM 51.8 °F - 50.0 °F 94% 30.06 in - Calm Calm - N/A   Clear
11:20 PM 51.8 °F - 50.0 °F 94% 30.06 in - Variable 1.2 mph - N/A   Clear
11:50 PM 50.0 °F - 48.2 °F 94% 30.06 in - Variable 1.2 mph - N/A   Clear